Tracking 19149 objects as of 22-Apr-2018
HD Live streaming from Space Station
objects crossing your sky now

CZ-3B DEB

Track CZ-3B DEB now!


NORAD ID: 42464
Int'l Code: 2010-042AF
Perigee: 1,083.8 km
Apogee: 42,772.2 km
Inclination: 24.2 °
Period: 789.6 minutes
Semi major axis: 28298 km
RCS: Unknown
Launch date: September 4, 2010
Source: People's Republic of China (PRC)
Launch site: Xichang Space Center, China (XSC)

Note: This is SATELLITE DEBRIS
aabbcc
Your satellite tracking list
Your tracking list is empty




NASA's NSSDC Master Catalog

Two Line Element Set (TLE):
1 42464U 10042AF  18106.94053593 -.00000058 +00000-0 +00000-0 0  9995
2 42464 024.1565 274.9000 7365685 247.1772 023.9839 01.82366961028081
Source of the keplerian elements: AFSPC